Location: Katowice
(50.2611°N, 19.0242°E)
Time: 06:10:41
(UTC+02:00)

Explorer 7 - Pass Details

Date: 28 August 2019
Orbit: 485 x 680 km, 50.3° (Epoch: 18 September)

Event Time Altitude Azimuth Distance (km) Brightness Sun altitude
Rises 13:38:56 0° 286° (WNW) 2,941 10.6 48.0°
Reaches altitude 10° 13:41:28 10° 277° (W) 1,999 9.9 47.8°
Maximum altitude 13:45:37 35° 213° (SSW) 983 10.1 47.6°
Drops below altitude 10° 13:49:32 10° 147° (SSE) 1,877 10.0 47.3°
Sets 13:51:50 0° 138° (SE) 2,736 10.6 47.2°
